HST 1 20580U 90037B 24315.68845433 .00014543 00000-0 62816-3 0 9993 2 20580 28.4679 81.4935 0002087 180.7628 179.2962 15.21000967699339 ISS (ZARYA) 1 25544U 98067A 24316.21060541 .00023146 00000-0 39278-3 0 9993 2 25544 51.6386 307.0136 0008481 162.7826 197.3453 15.51344621481359 CXO 1 25867U 99040B 24318.59143727 .00000691 00000-0 00000-0 0 9992 2 25867 44.5231 142.0444 8730833 303.9002 0.2087 0.37812291 15126